Location: Willow Grove Park
(46.1754°N, 123.0885°W)
Time: 08:44:19
(UTC-07:00)

OTV 5 (USA 277) - Visible Passes

Search period start: 14 October 2019 00:00
Search period end: 24 October 2019 00:00
Orbit: 310 x 324 km, 54.5° (Epoch: 08 October)

Date Brightness Start Highest point End Pass type
(mag) Time Alt. Az. Time Alt. Az. Time Alt. Az.
14 Oct ? 05:44:13 16° N 05:44:39 17° N 05:46:32 10° NE visible
15 Oct ? 05:58:25 18° NNW 05:59:29 22° NNE 06:01:44 10° ENE visible
16 Oct ? 06:12:41 19° NNW 06:14:14 37° NNE 06:16:48 10° E visible
17 Oct ? 04:56:07 11° ENE 04:56:07 11° ENE 04:56:15 10° ENE visible
17 Oct ? 06:27:00 19° NW 06:28:52 82° NE 06:31:35 10° ESE visible
18 Oct ? 05:10:32 17° ENE 05:10:32 17° ENE 05:11:25 10° E visible
18 Oct ? 06:41:26 15° WNW 06:43:22 38° SW 06:45:56 10° SSE visible
19 Oct ? 05:25:04 24° E 05:25:04 24° E 05:26:21 10° ESE visible
19 Oct ? 06:55:59 10° W 06:57:44 16° SW 06:59:29 10° S visible
20 Oct ? 05:39:44 23° SE 05:39:44 23° SE 05:40:56 10° SE visible
21 Oct ? 05:54:32 13° S 05:54:32 13° S 05:54:58 10° SSE visible
